User: anonymous   Login
Location: Unspecified
(0.0000°N, 0.0000°E)
Time: 10:02:48
(UTC+00:00)
Language:

STARLINK-31461 - Orbit

View from above orbital plane
View from above orbital plane
View from above satellite
View from above satellite

Ground track
Ground track

The orbit is defined by the following mean orbital elements,

1 59370U          26145.55509075 +.00000000 +00000-0 +23847-5 0 00000
2 59370  42.9996 174.9220 0001511 272.1035  87.9644 15.27583964    06
Epoch (UTC): 25 May 2026 13:19:19
Eccentricity: 0.0001511
inclination: 42.9996°
perigee height: 482 km
apogee height: 484 km
right ascension of ascending node: 174.9220°
argument of perigee: 272.1035°
revolutions per day: 15.27583964
mean anomaly at epoch: 87.9644°

The dashed part of the orbit path shows where the satellite is in the earth's shadow,  

DLR